Year,Month,Day,Hour,Minute,Value (Times are PST for temperature in C)
2009,09,29,00,00,9.30
2009,09,29,00,01,9.30
2009,09,29,00,02,9.30
2009,09,29,00,03,9.20
2009,09,29,00,04,9.20
2009,09,29,00,05,9.20
2009,09,29,00,06,9.20
2009,09,29,00,07,9.20
2009,09,29,00,08,9.20
2009,09,29,00,09,9.20
2009,09,29,00,10,9.20
2009,09,29,00,11,9.20
2009,09,29,00,12,9.20
2009,09,29,00,13,9.20
2009,09,29,00,14,9.20
2009,09,29,00,15,9.20
2009,09,29,00,16,9.20
2009,09,29,00,17,9.10
2009,09,29,00,18,9.10
2009,09,29,00,19,9.10
2009,09,29,00,20,9.10
2009,09,29,00,21,9.10
2009,09,29,00,22,9.10
2009,09,29,00,23,9.10
2009,09,29,00,24,9.10
2009,09,29,00,25,9.00
2009,09,29,00,26,9.00
2009,09,29,00,27,8.90
2009,09,29,00,28,8.90
2009,09,29,00,29,8.90
2009,09,29,00,30,8.90
2009,09,29,00,31,8.90
2009,09,29,00,32,8.90
2009,09,29,00,33,8.90
2009,09,29,00,34,8.90
2009,09,29,00,35,8.90
2009,09,29,00,36,8.90
2009,09,29,00,37,8.90
2009,09,29,00,38,9.00
2009,09,29,00,39,9.00
2009,09,29,00,40,9.00
2009,09,29,00,41,9.10
2009,09,29,00,42,9.10
2009,09,29,00,43,9.10
2009,09,29,00,44,9.10
2009,09,29,00,45,9.20
2009,09,29,00,46,9.20
2009,09,29,00,47,9.20
2009,09,29,00,48,9.30
2009,09,29,00,49,9.20
2009,09,29,00,50,9.20
2009,09,29,00,51,9.20
2009,09,29,00,52,9.20
2009,09,29,00,53,9.20
2009,09,29,00,54,9.30
2009,09,29,00,55,9.40
2009,09,29,00,56,9.40
2009,09,29,00,57,9.50
2009,09,29,00,58,9.60
2009,09,29,00,59,9.70
2009,09,29,01,00,9.70
2009,09,29,01,01,9.70
2009,09,29,01,02,9.70
2009,09,29,01,03,9.80
2009,09,29,01,04,9.80
2009,09,29,01,05,9.80
2009,09,29,01,06,9.70
2009,09,29,01,07,9.70
2009,09,29,01,08,9.60
2009,09,29,01,09,9.60
2009,09,29,01,10,9.60
2009,09,29,01,11,9.50
2009,09,29,01,12,9.50
2009,09,29,01,13,9.40
2009,09,29,01,14,9.40
2009,09,29,01,15,9.40
2009,09,29,01,16,9.30
2009,09,29,01,17,9.30
2009,09,29,01,18,9.30
2009,09,29,01,19,9.30
2009,09,29,01,20,9.30
2009,09,29,01,21,9.30
2009,09,29,01,22,9.30
2009,09,29,01,23,9.30
2009,09,29,01,24,9.20
2009,09,29,01,25,9.20
2009,09,29,01,26,9.20
2009,09,29,01,27,9.20
2009,09,29,01,28,9.20
2009,09,29,01,29,9.20
2009,09,29,01,30,9.20
2009,09,29,01,31,9.20
2009,09,29,01,32,9.20
2009,09,29,01,33,9.30
2009,09,29,01,34,9.30
2009,09,29,01,35,9.30
2009,09,29,01,36,9.30
2009,09,29,01,37,9.30
2009,09,29,01,38,9.30
2009,09,29,01,39,9.30
2009,09,29,01,40,9.20
2009,09,29,01,41,9.20
2009,09,29,01,42,9.20
2009,09,29,01,43,9.10
2009,09,29,01,44,9.10
2009,09,29,01,45,9.10
2009,09,29,01,46,9.10
2009,09,29,01,47,9.10
2009,09,29,01,48,9.10
2009,09,29,01,49,9.10
2009,09,29,01,50,9.10
2009,09,29,01,51,9.10
2009,09,29,01,52,9.20
2009,09,29,01,53,9.20
2009,09,29,01,54,9.20
2009,09,29,01,55,9.20
2009,09,29,01,56,9.20
2009,09,29,01,57,9.10
2009,09,29,01,58,9.10
2009,09,29,01,59,9.10
2009,09,29,02,00,9.10
2009,09,29,02,01,9.10
2009,09,29,02,02,9.10
2009,09,29,02,03,9.10
2009,09,29,02,04,9.00
2009,09,29,02,05,9.00
2009,09,29,02,06,9.00
2009,09,29,02,07,9.00
2009,09,29,02,08,9.00
2009,09,29,02,09,9.00
2009,09,29,02,10,9.00
2009,09,29,02,11,9.00
2009,09,29,02,12,9.00
2009,09,29,02,13,8.90
2009,09,29,02,14,8.90
2009,09,29,02,15,8.90
2009,09,29,02,16,8.90
2009,09,29,02,17,8.90
2009,09,29,02,18,8.90
2009,09,29,02,19,8.90
2009,09,29,02,20,8.90
2009,09,29,02,21,8.90
2009,09,29,02,22,8.90
2009,09,29,02,23,8.90
2009,09,29,02,24,8.90
2009,09,29,02,25,8.90
2009,09,29,02,26,8.90
2009,09,29,02,27,8.90
2009,09,29,02,28,8.90
2009,09,29,02,29,8.90
2009,09,29,02,30,8.90
2009,09,29,02,31,8.90
2009,09,29,02,32,8.80
2009,09,29,02,33,8.90
2009,09,29,02,34,8.80
2009,09,29,02,35,8.80
2009,09,29,02,36,8.80
2009,09,29,02,37,8.80
2009,09,29,02,38,8.80
2009,09,29,02,39,8.80
2009,09,29,02,40,8.80
2009,09,29,02,41,8.80
2009,09,29,02,42,8.80
2009,09,29,02,43,8.80
2009,09,29,02,44,8.70
2009,09,29,02,45,8.70
2009,09,29,02,46,8.70
2009,09,29,02,47,8.70
2009,09,29,02,48,8.70
2009,09,29,02,49,8.70
2009,09,29,02,50,8.70
2009,09,29,02,51,8.60
2009,09,29,02,52,8.60
2009,09,29,02,53,8.60
2009,09,29,02,54,8.60
2009,09,29,02,55,8.60
2009,09,29,02,56,8.60
2009,09,29,02,57,8.60
2009,09,29,02,58,8.60
2009,09,29,02,59,8.60
2009,09,29,03,00,8.60
2009,09,29,03,01,8.60
2009,09,29,03,02,8.60
2009,09,29,03,03,8.60
2009,09,29,03,04,8.60
2009,09,29,03,05,8.60
2009,09,29,03,06,8.60
2009,09,29,03,07,8.60
2009,09,29,03,08,8.60
2009,09,29,03,09,8.70
2009,09,29,03,10,8.70
2009,09,29,03,11,8.70
2009,09,29,03,12,8.70
2009,09,29,03,13,8.70
2009,09,29,03,14,8.80
2009,09,29,03,15,8.80
2009,09,29,03,16,8.80
2009,09,29,03,17,8.80
2009,09,29,03,18,8.80
2009,09,29,03,19,8.80
2009,09,29,03,20,8.80
2009,09,29,03,21,8.80
2009,09,29,03,22,8.80
2009,09,29,03,23,8.80
2009,09,29,03,24,8.80
2009,09,29,03,25,8.80
2009,09,29,03,26,8.80
2009,09,29,03,27,8.70
2009,09,29,03,28,8.70
2009,09,29,03,29,8.70
2009,09,29,03,30,8.70
2009,09,29,03,31,8.70
2009,09,29,03,32,8.70
2009,09,29,03,33,8.70
2009,09,29,03,34,8.70
2009,09,29,03,35,8.70
2009,09,29,03,36,8.70
2009,09,29,03,37,8.70
2009,09,29,03,38,8.70
2009,09,29,03,39,8.70
2009,09,29,03,40,8.70
2009,09,29,03,41,8.70
2009,09,29,03,42,8.70
2009,09,29,03,43,8.70
2009,09,29,03,44,8.70
2009,09,29,03,45,8.70
2009,09,29,03,46,8.70
2009,09,29,03,47,8.70
2009,09,29,03,48,8.70
2009,09,29,03,49,8.70
2009,09,29,03,50,8.60
2009,09,29,03,51,8.50
2009,09,29,03,52,8.50
2009,09,29,03,53,8.40
2009,09,29,03,54,8.30
2009,09,29,03,55,8.20
2009,09,29,03,56,8.10
2009,09,29,03,57,8.10
2009,09,29,03,58,8.00
2009,09,29,03,59,7.90
2009,09,29,04,00,7.90
2009,09,29,04,01,7.80
2009,09,29,04,02,7.80
2009,09,29,04,03,7.80
2009,09,29,04,04,7.70
2009,09,29,04,05,7.70
2009,09,29,04,06,7.70
2009,09,29,04,07,7.70
2009,09,29,04,08,7.70
2009,09,29,04,09,7.70
2009,09,29,04,10,7.60
2009,09,29,04,11,7.60
2009,09,29,04,12,7.60
2009,09,29,04,13,7.60
2009,09,29,04,14,7.60
2009,09,29,04,15,7.60
2009,09,29,04,16,7.60
2009,09,29,04,17,7.60
2009,09,29,04,18,7.60
2009,09,29,04,19,7.60
2009,09,29,04,20,7.60
2009,09,29,04,21,7.50
2009,09,29,04,22,7.50
2009,09,29,04,23,7.50
2009,09,29,04,24,7.50
2009,09,29,04,25,7.50
2009,09,29,04,26,7.50
2009,09,29,04,27,7.50
2009,09,29,04,28,7.50
2009,09,29,04,29,7.50
2009,09,29,04,30,7.50
2009,09,29,04,31,7.50
2009,09,29,04,32,7.50
2009,09,29,04,33,7.50
2009,09,29,04,34,7.50
2009,09,29,04,35,7.50
2009,09,29,04,36,7.50
2009,09,29,04,37,7.50
2009,09,29,04,38,7.60
2009,09,29,04,39,7.60
2009,09,29,04,40,7.60
2009,09,29,04,41,7.60
2009,09,29,04,42,7.60
2009,09,29,04,43,7.60
2009,09,29,04,44,7.60
2009,09,29,04,45,7.60
2009,09,29,04,46,7.60
2009,09,29,04,47,7.60
2009,09,29,04,48,7.50
2009,09,29,04,49,7.60
2009,09,29,04,50,7.50
2009,09,29,04,51,7.50
2009,09,29,04,52,7.50
2009,09,29,04,53,7.50
2009,09,29,04,54,7.50
2009,09,29,04,55,7.50
2009,09,29,04,56,7.50
2009,09,29,04,57,7.50
2009,09,29,04,58,7.50
2009,09,29,04,59,7.50
2009,09,29,05,00,7.50
2009,09,29,05,01,7.40
2009,09,29,05,02,7.40
2009,09,29,05,03,7.40
2009,09,29,05,04,7.40
2009,09,29,05,05,7.40
2009,09,29,05,06,7.40
2009,09,29,05,07,7.40
2009,09,29,05,08,7.40
2009,09,29,05,09,7.40
2009,09,29,05,10,7.40
2009,09,29,05,11,7.40
2009,09,29,05,12,7.40
2009,09,29,05,13,7.40
2009,09,29,05,14,7.40
2009,09,29,05,15,7.40
2009,09,29,05,16,7.40
2009,09,29,05,17,7.40
2009,09,29,05,18,7.40
2009,09,29,05,19,7.40
2009,09,29,05,20,7.40
2009,09,29,05,21,7.40
2009,09,29,05,22,7.40
2009,09,29,05,23,7.40
2009,09,29,05,24,7.40
2009,09,29,05,25,7.40
2009,09,29,05,26,7.30
2009,09,29,05,27,7.30
2009,09,29,05,28,7.40
2009,09,29,05,29,7.40
2009,09,29,05,30,7.40
2009,09,29,05,31,7.40
2009,09,29,05,32,7.40
2009,09,29,05,33,7.40
2009,09,29,05,34,7.40
2009,09,29,05,35,7.40
2009,09,29,05,36,7.40
2009,09,29,05,37,7.40
2009,09,29,05,38,7.40
2009,09,29,05,39,7.40
2009,09,29,05,40,7.40
2009,09,29,05,41,7.40
2009,09,29,05,42,7.40
2009,09,29,05,43,7.40
2009,09,29,05,44,7.40
2009,09,29,05,45,7.40
2009,09,29,05,46,7.30
2009,09,29,05,47,7.30
2009,09,29,05,48,7.30
2009,09,29,05,49,7.30
2009,09,29,05,50,7.30
2009,09,29,05,51,7.30
2009,09,29,05,52,7.30
2009,09,29,05,53,7.30
2009,09,29,05,54,7.30
2009,09,29,05,55,7.30
2009,09,29,05,56,7.30
2009,09,29,05,57,7.30
2009,09,29,05,58,7.30
2009,09,29,05,59,7.30
2009,09,29,06,00,7.30
2009,09,29,06,01,7.30
2009,09,29,06,02,7.30
2009,09,29,06,03,7.30
2009,09,29,06,04,7.30
2009,09,29,06,05,7.30
2009,09,29,06,06,7.30
2009,09,29,06,07,7.30
2009,09,29,06,08,7.30
2009,09,29,06,09,7.30
2009,09,29,06,10,7.30
2009,09,29,06,11,7.30
2009,09,29,06,12,7.30
2009,09,29,06,13,7.30
2009,09,29,06,14,7.30
2009,09,29,06,15,7.30
2009,09,29,06,16,7.30
2009,09,29,06,17,7.30
2009,09,29,06,18,7.30
2009,09,29,06,19,7.30
2009,09,29,06,20,7.30
2009,09,29,06,21,7.30
2009,09,29,06,22,7.30
2009,09,29,06,23,7.30
2009,09,29,06,24,7.30
2009,09,29,06,25,7.30
2009,09,29,06,26,7.30
2009,09,29,06,27,7.30
2009,09,29,06,28,7.30
2009,09,29,06,29,7.30
2009,09,29,06,30,7.30
2009,09,29,06,31,7.30
2009,09,29,06,32,7.30
2009,09,29,06,33,7.30
2009,09,29,06,34,7.30
2009,09,29,06,35,7.30
2009,09,29,06,36,7.30
2009,09,29,06,37,7.30
2009,09,29,06,38,7.30
2009,09,29,06,39,7.30
2009,09,29,06,40,7.30
2009,09,29,06,41,7.30
2009,09,29,06,42,7.30
2009,09,29,06,43,7.30
2009,09,29,06,44,7.30
2009,09,29,06,45,7.30
2009,09,29,06,46,7.30
2009,09,29,06,47,7.30
2009,09,29,06,48,7.30
2009,09,29,06,49,7.30
2009,09,29,06,50,7.30
2009,09,29,06,51,7.30
2009,09,29,06,52,7.30
2009,09,29,06,53,7.30
2009,09,29,06,54,7.30
2009,09,29,06,55,7.30
2009,09,29,06,56,7.30
2009,09,29,06,57,7.30
2009,09,29,06,58,7.30
2009,09,29,06,59,7.30
2009,09,29,07,00,7.30
2009,09,29,07,01,7.30
2009,09,29,07,02,7.30
2009,09,29,07,03,7.30
2009,09,29,07,04,7.30
2009,09,29,07,05,7.30
2009,09,29,07,06,7.30
2009,09,29,07,07,7.30
2009,09,29,07,08,7.30
2009,09,29,07,09,7.30
2009,09,29,07,10,7.30
2009,09,29,07,11,7.30
2009,09,29,07,12,7.30
2009,09,29,07,13,7.30
2009,09,29,07,14,7.30
2009,09,29,07,15,7.20
2009,09,29,07,16,7.20
2009,09,29,07,17,7.20
2009,09,29,07,18,7.20
2009,09,29,07,19,7.20
2009,09,29,07,20,7.20
2009,09,29,07,21,7.20
2009,09,29,07,22,7.20
2009,09,29,07,23,7.20
2009,09,29,07,24,7.20
2009,09,29,07,25,7.20
2009,09,29,07,26,7.20
2009,09,29,07,27,7.20
2009,09,29,07,28,7.20
2009,09,29,07,29,7.20
2009,09,29,07,30,7.20
2009,09,29,07,31,7.20
2009,09,29,07,32,7.10
2009,09,29,07,33,7.10
2009,09,29,07,34,7.10
2009,09,29,07,35,7.10
2009,09,29,07,36,7.10
2009,09,29,07,37,7.10
2009,09,29,07,38,7.10
2009,09,29,07,39,7.10
2009,09,29,07,40,7.10
2009,09,29,07,41,7.10
2009,09,29,07,42,7.10
2009,09,29,07,43,7.10
2009,09,29,07,44,7.10
2009,09,29,07,45,7.10
2009,09,29,07,46,7.10
2009,09,29,07,47,7.10
2009,09,29,07,48,7.10
2009,09,29,07,49,7.10
2009,09,29,07,50,7.10
2009,09,29,07,51,7.10
2009,09,29,07,52,7.10
2009,09,29,07,53,7.20
2009,09,29,07,54,7.20
2009,09,29,07,55,7.10
2009,09,29,07,56,7.10
2009,09,29,07,57,7.10
2009,09,29,07,58,7.10
2009,09,29,07,59,7.10
2009,09,29,08,00,7.10
2009,09,29,08,01,7.10
2009,09,29,08,02,7.10
2009,09,29,08,03,7.10
2009,09,29,08,04,7.10
2009,09,29,08,05,7.10
2009,09,29,08,06,7.10
2009,09,29,08,07,7.10
2009,09,29,08,08,7.10
2009,09,29,08,09,7.10
2009,09,29,08,10,7.10
2009,09,29,08,11,7.10
2009,09,29,08,12,7.10
2009,09,29,08,13,7.10
2009,09,29,08,14,7.10
2009,09,29,08,15,7.10
2009,09,29,08,16,7.10
2009,09,29,08,17,7.10
2009,09,29,08,18,7.10
2009,09,29,08,19,7.10
2009,09,29,08,20,7.10
2009,09,29,08,21,7.10
2009,09,29,08,22,7.10
2009,09,29,08,23,7.10
2009,09,29,08,24,7.10
2009,09,29,08,25,7.10
2009,09,29,08,26,7.20
2009,09,29,08,27,7.20
2009,09,29,08,28,7.20
2009,09,29,08,29,7.20
2009,09,29,08,30,7.20
2009,09,29,08,31,7.20
2009,09,29,08,32,7.20
2009,09,29,08,33,7.20
2009,09,29,08,34,7.20
2009,09,29,08,35,7.20
2009,09,29,08,36,7.20
2009,09,29,08,37,7.20
2009,09,29,08,38,7.20
2009,09,29,08,39,7.20
2009,09,29,08,40,7.20
2009,09,29,08,41,7.20
2009,09,29,08,42,7.20
2009,09,29,08,43,7.20
2009,09,29,08,44,7.20
2009,09,29,08,45,7.20
2009,09,29,08,46,7.20
2009,09,29,08,47,7.20
2009,09,29,08,48,7.20
2009,09,29,08,49,7.20
2009,09,29,08,50,7.20
2009,09,29,08,51,7.20
2009,09,29,08,52,7.20
2009,09,29,08,53,7.20
2009,09,29,08,54,7.20
2009,09,29,08,55,7.30
2009,09,29,08,56,7.30
2009,09,29,08,57,7.30
2009,09,29,08,58,7.30
2009,09,29,08,59,7.30
2009,09,29,09,00,7.30
2009,09,29,09,01,7.40
2009,09,29,09,02,7.40
2009,09,29,09,03,7.40
2009,09,29,09,04,7.40
2009,09,29,09,05,7.50
2009,09,29,09,06,7.50
2009,09,29,09,07,7.50
2009,09,29,09,08,7.50
2009,09,29,09,09,7.50
2009,09,29,09,10,7.50
2009,09,29,09,11,7.50
2009,09,29,09,12,7.50
2009,09,29,09,13,7.60
2009,09,29,09,14,7.60
2009,09,29,09,15,7.60
2009,09,29,09,16,7.60
2009,09,29,09,17,7.60
2009,09,29,09,18,7.70
2009,09,29,09,19,7.70
2009,09,29,09,20,7.70
2009,09,29,09,21,7.70
2009,09,29,09,22,7.70
2009,09,29,09,23,7.70
2009,09,29,09,24,7.70
2009,09,29,09,25,7.80
2009,09,29,09,26,7.80
2009,09,29,09,27,7.80
2009,09,29,09,28,7.80
2009,09,29,09,29,7.80
2009,09,29,09,30,7.80
2009,09,29,09,31,7.80
2009,09,29,09,32,7.80
2009,09,29,09,33,7.80
2009,09,29,09,34,7.80
2009,09,29,09,35,7.80
2009,09,29,09,36,7.80
2009,09,29,09,37,7.80
2009,09,29,09,38,7.80
2009,09,29,09,39,7.70
2009,09,29,09,40,7.70
2009,09,29,09,41,7.70
2009,09,29,09,42,7.70
2009,09,29,09,43,7.70
2009,09,29,09,44,7.70
2009,09,29,09,45,7.70
2009,09,29,09,46,7.70
2009,09,29,09,47,7.70
2009,09,29,09,48,7.60
2009,09,29,09,49,7.60
2009,09,29,09,50,7.60
2009,09,29,09,51,7.60
2009,09,29,09,52,7.60
2009,09,29,09,53,7.60
2009,09,29,09,54,7.60
2009,09,29,09,55,7.60
2009,09,29,09,56,7.60
2009,09,29,09,57,7.60
2009,09,29,09,58,7.70
2009,09,29,09,59,7.70
2009,09,29,10,00,7.70
2009,09,29,10,01,7.70
2009,09,29,10,02,7.80
2009,09,29,10,03,7.80
2009,09,29,10,04,7.80
2009,09,29,10,05,7.80
2009,09,29,10,06,7.80
2009,09,29,10,07,7.90
2009,09,29,10,08,7.90
2009,09,29,10,09,7.90
2009,09,29,10,10,8.00
2009,09,29,10,11,8.10
2009,09,29,10,12,8.10
2009,09,29,10,13,8.20
2009,09,29,10,14,8.20
2009,09,29,10,15,8.30
2009,09,29,10,16,8.30
2009,09,29,10,17,8.30
2009,09,29,10,18,8.30
2009,09,29,10,19,8.30
2009,09,29,10,20,8.40
2009,09,29,10,21,8.40
2009,09,29,10,22,8.40
2009,09,29,10,23,8.40
2009,09,29,10,24,8.40
2009,09,29,10,25,8.40
2009,09,29,10,26,8.40
2009,09,29,10,27,8.40
2009,09,29,10,28,8.40
2009,09,29,10,29,8.40
2009,09,29,10,30,8.40
2009,09,29,10,31,8.50
2009,09,29,10,32,8.50
2009,09,29,10,33,8.60
2009,09,29,10,34,8.70
2009,09,29,10,35,8.70
2009,09,29,10,36,8.70
2009,09,29,10,37,8.80
2009,09,29,10,38,8.80
2009,09,29,10,39,8.90
2009,09,29,10,40,8.90
2009,09,29,10,41,8.90
2009,09,29,10,42,8.80
2009,09,29,10,43,8.80
2009,09,29,10,44,8.80
2009,09,29,10,45,8.80
2009,09,29,10,46,8.80
2009,09,29,10,47,8.80
2009,09,29,10,48,8.80
2009,09,29,10,49,8.90
2009,09,29,10,50,8.90
2009,09,29,10,51,8.90
2009,09,29,10,52,8.90
2009,09,29,10,53,8.90
2009,09,29,10,54,9.00
2009,09,29,10,55,9.00
2009,09,29,10,56,9.00
2009,09,29,10,57,9.00
2009,09,29,10,58,9.10
2009,09,29,10,59,9.10
2009,09,29,11,00,9.00
2009,09,29,11,01,9.00
2009,09,29,11,02,8.90
2009,09,29,11,03,8.90
2009,09,29,11,04,8.90
2009,09,29,11,05,8.90
2009,09,29,11,06,8.80
2009,09,29,11,07,8.80
2009,09,29,11,08,8.80
2009,09,29,11,09,8.80
2009,09,29,11,10,8.80
2009,09,29,11,11,8.80
2009,09,29,11,12,8.70
2009,09,29,11,13,8.70
2009,09,29,11,14,8.70
2009,09,29,11,15,8.70
2009,09,29,11,16,8.80
2009,09,29,11,17,8.70
2009,09,29,11,18,8.70
2009,09,29,11,19,8.70
2009,09,29,11,20,8.80
2009,09,29,11,21,8.70
2009,09,29,11,22,8.70
2009,09,29,11,23,8.70
2009,09,29,11,24,8.70
2009,09,29,11,25,8.70
2009,09,29,11,26,8.70
2009,09,29,11,27,8.80
2009,09,29,11,28,8.80
2009,09,29,11,29,8.80
2009,09,29,11,30,8.80
2009,09,29,11,31,8.80
2009,09,29,11,32,8.80
2009,09,29,11,33,8.80
2009,09,29,11,34,8.80
2009,09,29,11,35,8.80
2009,09,29,11,36,8.80
2009,09,29,11,37,8.90
2009,09,29,11,38,8.90
2009,09,29,11,39,8.90
2009,09,29,11,40,8.90
2009,09,29,11,41,8.80
2009,09,29,11,42,8.80
2009,09,29,11,43,8.80
2009,09,29,11,44,8.80
2009,09,29,11,45,8.80
2009,09,29,11,46,8.80
2009,09,29,11,47,8.90
2009,09,29,11,48,8.90
2009,09,29,11,49,8.90
2009,09,29,11,50,8.90
2009,09,29,11,51,8.90
2009,09,29,11,52,8.90
2009,09,29,11,53,9.00
2009,09,29,11,54,9.00
2009,09,29,11,55,9.10
2009,09,29,11,56,9.10
2009,09,29,11,57,9.10
2009,09,29,11,58,9.10
2009,09,29,11,59,9.10
2009,09,29,12,00,9.00
2009,09,29,12,01,9.10
2009,09,29,12,02,9.10
2009,09,29,12,03,9.20
2009,09,29,12,04,9.20
2009,09,29,12,05,9.30
2009,09,29,12,06,9.30
2009,09,29,12,07,9.30
2009,09,29,12,08,9.30
2009,09,29,12,09,9.40
2009,09,29,12,10,9.40
2009,09,29,12,11,9.50
2009,09,29,12,12,9.60
2009,09,29,12,13,9.70
2009,09,29,12,14,9.80
2009,09,29,12,15,9.80
2009,09,29,12,16,9.80
2009,09,29,12,17,9.90
2009,09,29,12,18,9.90
2009,09,29,12,19,10.00
2009,09,29,12,20,10.00
2009,09,29,12,21,10.00
2009,09,29,12,22,10.00
2009,09,29,12,23,10.00
2009,09,29,12,24,10.00
2009,09,29,12,25,10.10
2009,09,29,12,26,10.10
2009,09,29,12,27,10.20
2009,09,29,12,28,10.20
2009,09,29,12,29,10.20
2009,09,29,12,30,10.30
2009,09,29,12,31,10.30
2009,09,29,12,32,10.30
2009,09,29,12,33,10.30
2009,09,29,12,34,10.40
2009,09,29,12,35,10.40
2009,09,29,12,36,10.40
2009,09,29,12,37,10.50
2009,09,29,12,38,10.50
2009,09,29,12,39,10.60
2009,09,29,12,40,10.70
2009,09,29,12,41,10.80
2009,09,29,12,42,11.00
2009,09,29,12,43,11.10
2009,09,29,12,44,11.20
2009,09,29,12,45,11.30
2009,09,29,12,46,11.30
2009,09,29,12,47,11.50
2009,09,29,12,48,11.50
2009,09,29,12,49,11.60
2009,09,29,12,50,11.60
2009,09,29,12,51,11.60
2009,09,29,12,52,11.60
2009,09,29,12,53,11.60
2009,09,29,12,54,11.60
2009,09,29,12,55,11.70
2009,09,29,12,56,11.70
2009,09,29,12,57,11.70
2009,09,29,12,58,11.70
2009,09,29,12,59,11.70
2009,09,29,13,00,11.70
2009,09,29,13,01,11.60
2009,09,29,13,02,11.60
2009,09,29,13,03,11.60
2009,09,29,13,04,11.60
2009,09,29,13,05,11.60
2009,09,29,13,06,11.60
2009,09,29,13,07,11.70
2009,09,29,13,08,11.70
2009,09,29,13,09,11.70
2009,09,29,13,10,11.60
2009,09,29,13,11,11.60
2009,09,29,13,12,11.70
2009,09,29,13,13,11.70
2009,09,29,13,14,11.80
2009,09,29,13,15,11.90
2009,09,29,13,16,11.90
2009,09,29,13,17,11.80
2009,09,29,13,18,11.80
2009,09,29,13,19,11.90
2009,09,29,13,20,11.90
2009,09,29,13,21,12.00
2009,09,29,13,22,12.10
2009,09,29,13,23,12.20
2009,09,29,13,24,12.30
2009,09,29,13,25,12.30
2009,09,29,13,26,12.30
2009,09,29,13,27,12.10
2009,09,29,13,28,12.00
2009,09,29,13,29,11.90
2009,09,29,13,30,11.90
2009,09,29,13,31,11.80
2009,09,29,13,32,11.90
2009,09,29,13,33,11.90
2009,09,29,13,34,11.90
2009,09,29,13,35,11.90
2009,09,29,13,36,11.90
2009,09,29,13,37,11.80
2009,09,29,13,38,11.70
2009,09,29,13,39,11.70
2009,09,29,13,40,11.70
2009,09,29,13,41,11.60
2009,09,29,13,42,11.70
2009,09,29,13,43,11.70
2009,09,29,13,44,11.70
2009,09,29,13,45,11.80
2009,09,29,13,46,11.80
2009,09,29,13,47,11.80
2009,09,29,13,48,11.90
2009,09,29,13,49,11.90
2009,09,29,13,50,11.90
2009,09,29,13,51,12.00
2009,09,29,13,52,12.00
2009,09,29,13,53,11.90
2009,09,29,13,54,11.90
2009,09,29,13,55,11.80
2009,09,29,13,56,11.80
2009,09,29,13,57,11.70
2009,09,29,13,58,11.60
2009,09,29,13,59,11.60
2009,09,29,14,00,11.50
2009,09,29,14,01,11.50
2009,09,29,14,02,11.50
2009,09,29,14,03,11.40
2009,09,29,14,04,11.40
2009,09,29,14,05,11.40
2009,09,29,14,06,11.40
2009,09,29,14,07,11.40
2009,09,29,14,08,11.30
2009,09,29,14,09,11.30
2009,09,29,14,10,11.30
2009,09,29,14,11,11.40
2009,09,29,14,12,11.40
2009,09,29,14,13,11.50
2009,09,29,14,14,11.60
2009,09,29,14,15,11.70
2009,09,29,14,16,11.80
2009,09,29,14,17,11.90
2009,09,29,14,18,11.90
2009,09,29,14,19,12.00
2009,09,29,14,20,12.00
2009,09,29,14,21,11.90
2009,09,29,14,22,11.90
2009,09,29,14,23,11.90
2009,09,29,14,24,11.90
2009,09,29,14,25,11.90
2009,09,29,14,26,11.90
2009,09,29,14,27,12.00
2009,09,29,14,28,12.10
2009,09,29,14,29,12.20
2009,09,29,14,30,12.20
2009,09,29,14,31,12.20
2009,09,29,14,32,12.20
2009,09,29,14,33,12.20
2009,09,29,14,34,12.20
2009,09,29,14,35,12.30
2009,09,29,14,36,12.30
2009,09,29,14,37,12.40
2009,09,29,14,38,12.40
2009,09,29,14,39,12.40
2009,09,29,14,40,12.30
2009,09,29,14,41,12.20
2009,09,29,14,42,12.20
2009,09,29,14,43,12.20
2009,09,29,14,44,12.20
2009,09,29,14,45,12.20
2009,09,29,14,46,12.30
2009,09,29,14,47,12.30
2009,09,29,14,48,12.30
2009,09,29,14,49,12.40
2009,09,29,14,50,12.50
2009,09,29,14,51,12.60
2009,09,29,14,52,12.60
2009,09,29,14,53,12.60
2009,09,29,14,54,12.70
2009,09,29,14,55,12.70
2009,09,29,14,56,12.70
2009,09,29,14,57,12.60
2009,09,29,14,58,12.50
2009,09,29,14,59,12.50
2009,09,29,15,00,12.50
2009,09,29,15,01,12.50
2009,09,29,15,02,12.40
2009,09,29,15,03,12.40
2009,09,29,15,04,12.30
2009,09,29,15,05,12.30
2009,09,29,15,06,12.30
2009,09,29,15,07,12.20
2009,09,29,15,08,12.20
2009,09,29,15,09,12.20
2009,09,29,15,10,12.20
2009,09,29,15,11,12.20
2009,09,29,15,12,12.20
2009,09,29,15,13,12.30
2009,09,29,15,14,12.30
2009,09,29,15,15,12.40
2009,09,29,15,16,12.40
2009,09,29,15,17,12.40
2009,09,29,15,18,12.50
2009,09,29,15,19,12.50
2009,09,29,15,20,12.40
2009,09,29,15,21,12.40
2009,09,29,15,22,12.40
2009,09,29,15,23,12.40
2009,09,29,15,24,12.40
2009,09,29,15,25,12.50
2009,09,29,15,26,12.60
2009,09,29,15,27,12.60
2009,09,29,15,28,12.70
2009,09,29,15,29,12.70
2009,09,29,15,30,12.70
2009,09,29,15,31,12.80
2009,09,29,15,32,12.90
2009,09,29,15,33,12.90
2009,09,29,15,34,12.90
2009,09,29,15,35,12.80
2009,09,29,15,36,12.80
2009,09,29,15,37,12.80
2009,09,29,15,38,12.90
2009,09,29,15,39,12.90
2009,09,29,15,40,13.00
2009,09,29,15,41,13.00
2009,09,29,15,42,13.00
2009,09,29,15,43,12.90
2009,09,29,15,44,12.90
2009,09,29,15,45,12.80
2009,09,29,15,46,12.80
2009,09,29,15,47,12.80
2009,09,29,15,48,12.80
2009,09,29,15,49,12.70
2009,09,29,15,50,12.70
2009,09,29,15,51,12.70
2009,09,29,15,52,12.60
2009,09,29,15,53,12.70
2009,09,29,15,54,12.70
2009,09,29,15,55,12.70
2009,09,29,15,56,12.70
2009,09,29,15,57,12.70
2009,09,29,15,58,12.70
2009,09,29,15,59,12.70
2009,09,29,16,00,12.70
2009,09,29,16,01,12.70
2009,09,29,16,02,12.80
2009,09,29,16,03,12.80
2009,09,29,16,04,12.80
2009,09,29,16,05,12.80
2009,09,29,16,06,12.80
2009,09,29,16,07,12.80
2009,09,29,16,08,12.80
2009,09,29,16,09,12.70
2009,09,29,16,10,12.70
2009,09,29,16,11,12.60
2009,09,29,16,12,12.50
2009,09,29,16,13,12.50
2009,09,29,16,14,12.40
2009,09,29,16,15,12.40
2009,09,29,16,16,12.40
2009,09,29,16,17,12.50
2009,09,29,16,18,12.50
2009,09,29,16,19,12.50
2009,09,29,16,20,12.60
2009,09,29,16,21,12.70
2009,09,29,16,22,12.70
2009,09,29,16,23,12.80
2009,09,29,16,24,12.80
2009,09,29,16,25,12.90
2009,09,29,16,26,12.90
2009,09,29,16,27,12.90
2009,09,29,16,28,12.90
2009,09,29,16,29,12.80
2009,09,29,16,30,12.70
2009,09,29,16,31,12.70
2009,09,29,16,32,12.60
2009,09,29,16,33,12.60
2009,09,29,16,34,12.60
2009,09,29,16,35,12.60
2009,09,29,16,36,12.70
2009,09,29,16,37,12.70
2009,09,29,16,38,12.80
2009,09,29,16,39,12.80
2009,09,29,16,40,12.90
2009,09,29,16,41,12.90
2009,09,29,16,42,12.90
2009,09,29,16,43,13.00
2009,09,29,16,44,13.00
2009,09,29,16,45,13.00
2009,09,29,16,46,13.00
2009,09,29,16,47,13.00
2009,09,29,16,48,13.00
2009,09,29,16,49,13.00
2009,09,29,16,50,12.90
2009,09,29,16,51,12.80
2009,09,29,16,52,12.70
2009,09,29,16,53,12.60
2009,09,29,16,54,12.50
2009,09,29,16,55,12.50
2009,09,29,16,56,12.40
2009,09,29,16,57,12.30
2009,09,29,16,58,12.30
2009,09,29,16,59,12.20
2009,09,29,17,00,12.20
2009,09,29,17,01,12.20
2009,09,29,17,02,12.20
2009,09,29,17,03,12.20
2009,09,29,17,04,12.20
2009,09,29,17,05,12.20
2009,09,29,17,06,12.30
2009,09,29,17,07,12.30
2009,09,29,17,08,12.30
2009,09,29,17,09,12.30
2009,09,29,17,10,12.30
2009,09,29,17,11,12.30
2009,09,29,17,12,12.30
2009,09,29,17,13,12.40
2009,09,29,17,14,12.40
2009,09,29,17,15,12.50
2009,09,29,17,16,12.60
2009,09,29,17,17,12.60
2009,09,29,17,18,12.60
2009,09,29,17,19,12.60
2009,09,29,17,20,12.60
2009,09,29,17,21,12.60
2009,09,29,17,22,12.60
2009,09,29,17,23,12.60
2009,09,29,17,24,12.60
2009,09,29,17,25,12.60
2009,09,29,17,26,12.50
2009,09,29,17,27,12.50
2009,09,29,17,28,12.50
2009,09,29,17,29,12.50
2009,09,29,17,30,12.50
2009,09,29,17,31,12.50
2009,09,29,17,32,12.50
2009,09,29,17,33,12.40
2009,09,29,17,34,12.40
2009,09,29,17,35,12.40
2009,09,29,17,36,12.40
2009,09,29,17,37,12.40
2009,09,29,17,38,12.40
2009,09,29,17,39,12.40
2009,09,29,17,40,12.30
2009,09,29,17,41,12.30
2009,09,29,17,42,12.30
2009,09,29,17,43,12.30
2009,09,29,17,44,12.20
2009,09,29,17,45,12.20
2009,09,29,17,46,12.20
2009,09,29,17,47,12.20
2009,09,29,17,48,12.20
2009,09,29,17,49,12.20
2009,09,29,17,50,12.20
2009,09,29,17,51,12.20